• In Lithuania
  • List of Countries
  • For 7 days
  • Water Temperature
  • Satellite Maps
  • Weather Map
  • Weather Widgets
  • user-avatar
    Login

    Hourly Weather Zielenice

    Today, 20 September, Thursday

    Time Temperature Precipitation Wind Pressure Humidity
    00:00 +20°C° 0 mm 2 mps 750 mmHg 72%
    01:00 +19°C° 0 mm 2 mps 750 mmHg 73%
    02:00 +19°C° 0 mm 2 mps 750 mmHg 74%
    03:00 +19°C° 0 mm 2 mps 750 mmHg 75%
    04:00 +18°C° 0 mm 2 mps 750 mmHg 75%
    05:00 +19°C° 0 mm 2 mps 750 mmHg 75%
    06:00 +20°C° 0 mm 1 mps 750 mmHg 74%
    07:00 +21°C° 0 mm 1 mps 750 mmHg 73%
    08:00 +23°C° 0 mm 1 mps 750 mmHg 66%
    09:00 +25°C° 0 mm 1 mps 750 mmHg 59%
    10:00 +27°C° 0 mm 1 mps 750 mmHg 52%
    11:00 +28°C° 0 mm 1 mps 750 mmHg 49%
    12:00 +29°C° 0 mm 1 mps 750 mmHg 45%
    13:00 +29°C° 0 mm 1 mps 749 mmHg 42%
    14:00 +29°C° 0 mm 1 mps 749 mmHg 43%
    15:00 +29°C° 0 mm 1 mps 749 mmHg 43%
    16:00 +29°C° 0 mm 1 mps 749 mmHg 44%
    17:00 +27°C° 0 mm 2 mps 749 mmHg 49%
    18:00 +25°C° 0 mm 2 mps 748 mmHg 54%
    19:00 +23°C° 0 mm 2 mps 748 mmHg 59%
    20:00 +23°C° 0 mm 2 mps 748 mmHg 62%
    21:00 +21°C° 0 mm 2 mps 748 mmHg 64%
    22:00 +20°C° 0 mm 2 mps 748 mmHg 66%
    23:00 +20°C° 0 mm 2 mps 748 mmHg 68%

    Tomorrow, 21 September, Friday

    Time Temperature Precipitation Wind Pressure Humidity
    00:00 +20°C° 0 mm 2 mps 748 mmHg 70%
    01:00 +19°C° 0 mm 2 mps 748 mmHg 73%
    02:00 +19°C° 0 mm 2 mps 747 mmHg 74%
    03:00 +19°C° 0 mm 3 mps 747 mmHg 75%
    04:00 +18°C° 0 mm 3 mps 746 mmHg 77%
    05:00 +19°C° 0 mm 3 mps 746 mmHg 76%
    06:00 +19°C° 0 mm 3 mps 746 mmHg 74%
    07:00 +19°C° 0 mm 3 mps 746 mmHg 73%
    08:00 +21°C° 0 mm 4 mps 745 mmHg 65%
    09:00 +23°C° 0 mm 5 mps 745 mmHg 58%
    10:00 +26°C° 0 mm 5 mps 745 mmHg 50%
    11:00 +27°C° 0 mm 6 mps 745 mmHg 48%
    12:00 +28°C° 0 mm 6 mps 744 mmHg 45%
    13:00 +29°C° 0 mm 7 mps 744 mmHg 43%
    14:00 +29°C° 0 mm 6 mps 743 mmHg 44%
    15:00 +29°C° 0 mm 6 mps 743 mmHg 45%
    16:00 +28°C° 0 mm 5 mps 742 mmHg 47%
    17:00 +27°C° 0 mm 5 mps 743 mmHg 50%
    18:00 +26°C° 0 mm 5 mps 743 mmHg 53%
    19:00 +23°C° 0 mm 5 mps 743 mmHg 56%
    20:00 +22°C° 0 mm 5 mps 744 mmHg 60%
    21:00 +20°C° 0 mm 5 mps 745 mmHg 63%
    22:00 +19°C° 0 mm 6 mps 746 mmHg 67%
    23:00 +17°C° 0.1 mm 5 mps 746 mmHg 65%

    Day after tomorrow, 22 September, Saturday

    Time Temperature Precipitation Wind Pressure Humidity
    00:00 +17°C° 0.1 mm 4 mps 747 mmHg 63%
    01:00 +16°C° 0.1 mm 3 mps 747 mmHg 61%
    02:00 +16°C° 0 mm 3 mps 748 mmHg 62%
    03:00 +15°C° 0 mm 2 mps 748 mmHg 62%
    04:00 +15°C° 0 mm 2 mps 749 mmHg 63%
    05:00 +15°C° 0 mm 2 mps 749 mmHg 64%
    06:00 +15°C° 0 mm 2 mps 749 mmHg 64%
    07:00 +15°C° 0 mm 2 mps 749 mmHg 64%
    08:00 +14°C° 0.1 mm 3 mps 750 mmHg 61%
    09:00 +15°C° 0.1 mm 4 mps 750 mmHg 57%
    10:00 +15°C° 0.1 mm 5 mps 750 mmHg 54%
    11:00 +16°C° 0 mm 5 mps 750 mmHg 51%
    12:00 +17°C° 0 mm 5 mps 750 mmHg 47%
    13:00 +17°C° 0 mm 5 mps 749 mmHg 44%
    14:00 +17°C° 0 mm 5 mps 749 mmHg 44%
    15:00 +17°C° 0 mm 5 mps 749 mmHg 45%
    16:00 +18°C° 0 mm 4 mps 749 mmHg 45%
    17:00 +17°C° 0 mm 4 mps 749 mmHg 49%
    18:00 +14°C° 0 mm 3 mps 749 mmHg 54%
    19:00 +13°C° 0 mm 3 mps 749 mmHg 58%
    20:00 +12°C° 0 mm 3 mps 750 mmHg 59%
    21:00 +12°C° 0 mm 3 mps 750 mmHg 60%
    22:00 +12°C° 0 mm 3 mps 750 mmHg 61%
    23:00 +11°C° 0 mm 3 mps 750 mmHg 63%

    23 September, Sunday

    Time Temperature Precipitation Wind Pressure Humidity
    00:00 +11°C° 0 mm 3 mps 750 mmHg 64%
    01:00 +10°C° 0 mm 3 mps 750 mmHg 66%
    02:00 +10°C° 0 mm 3 mps 750 mmHg 67%
    03:00 +10°C° 0 mm 2 mps 750 mmHg 68%
    04:00 +10°C° 0 mm 2 mps 750 mmHg 69%
    05:00 +10°C° 0 mm 2 mps 750 mmHg 68%
    06:00 +10°C° 0 mm 2 mps 750 mmHg 68%
    07:00 +12°C° 0 mm 2 mps 750 mmHg 67%
    08:00 +12°C° 0 mm 3 mps 750 mmHg 63%
    09:00 +13°C° 0 mm 4 mps 750 mmHg 59%
    10:00 +15°C° 0 mm 4 mps 749 mmHg 54%
    11:00 +16°C° 0 mm 5 mps 749 mmHg 53%
    12:00 +16°C° 0 mm 5 mps 748 mmHg 52%
    13:00 +17°C° 0 mm 5 mps 747 mmHg 51%
    14:00 +16°C° 0.4 mm 5 mps 746 mmHg 58%
    15:00 +16°C° 0.4 mm 5 mps 745 mmHg 65%
    16:00 +15°C° 0.4 mm 5 mps 744 mmHg 72%
    17:00 +15°C° 0.6 mm 5 mps 743 mmHg 75%
    18:00 +15°C° 0.6 mm 6 mps 742 mmHg 78%
    19:00 +14°C° 0.6 mm 7 mps 740 mmHg 81%
    20:00 +15°C° 0.4 mm 7 mps 739 mmHg 77%
    21:00 +15°C° 0.4 mm 8 mps 738 mmHg 73%
    22:00 +16°C° 0.4 mm 9 mps 737 mmHg 70%
    23:00 +16°C° 0.5 mm 8 mps 735 mmHg 70%

    24 September, Monday

    Time Temperature Precipitation Wind Pressure Humidity
    00:00 +17°C° 0.5 mm 8 mps 734 mmHg 70%
    01:00 +17°C° 0.5 mm 8 mps 732 mmHg 71%
    02:00 +17°C° 2.9 mm 9 mps 732 mmHg 71%
    03:00 +16°C° 2.9 mm 10 mps 732 mmHg 71%
    04:00 +14°C° 2.9 mm 10 mps 732 mmHg 71%
    05:00 +14°C° 0.1 mm 10 mps 731 mmHg 72%
    06:00 +13°C° 0.1 mm 9 mps 731 mmHg 74%
    07:00 +12°C° 0.1 mm 9 mps 730 mmHg 75%
    08:00 +12°C° 0.3 mm 11 mps 731 mmHg 75%
    09:00 +10°C° 0.3 mm 13 mps 732 mmHg 76%
    10:00 +9°C° 0.3 mm 15 mps 733 mmHg 76%
    11:00 +9°C° 0.4 mm 14 mps 735 mmHg 75%
    12:00 +9°C° 0.4 mm 14 mps 737 mmHg 74%
    13:00 +9°C° 0.4 mm 14 mps 739 mmHg 72%
    14:00 +9°C° 0.1 mm 13 mps 740 mmHg 68%
    15:00 +10°C° 0.1 mm 13 mps 741 mmHg 63%
    16:00 +10°C° 0.1 mm 12 mps 742 mmHg 59%
    17:00 +11°C° 0 mm 11 mps 743 mmHg 61%
    18:00 +9°C° 0 mm 10 mps 744 mmHg 64%
    19:00 +8°C° 0 mm 9 mps 745 mmHg 66%
    20:00 +8°C° 0 mm 9 mps 746 mmHg 68%
    21:00 +8°C° 0 mm 9 mps 747 mmHg 70%
    22:00 +7°C° 0 mm 8 mps 748 mmHg 72%
    23:00 +7°C° 0 mm 8 mps 748 mmHg 73%

    25 September, Tuesday

    Time Temperature Precipitation Wind Pressure Humidity
    00:00 +7°C° 0 mm 8 mps 749 mmHg 74%
    01:00 +6°C° 0 mm 8 mps 750 mmHg 75%
    02:00 +6°C° 0 mm 8 mps 750 mmHg 74%
    03:00 +6°C° 0 mm 8 mps 750 mmHg 73%
    04:00 +6°C° 0 mm 8 mps 751 mmHg 71%
    05:00 +6°C° 0 mm 7 mps 751 mmHg 73%
    06:00 +6°C° 0 mm 7 mps 751 mmHg 74%
    07:00 +7°C° 0 mm 6 mps 752 mmHg 75%
    08:00 +8°C° 0.2 mm 7 mps 752 mmHg 71%
    09:00 +8°C° 0.2 mm 7 mps 752 mmHg 68%
    10:00 +9°C° 0.2 mm 7 mps 753 mmHg 64%
    11:00 +10°C° 0.3 mm 8 mps 753 mmHg 62%
    12:00 +10°C° 0.3 mm 8 mps 753 mmHg 59%
    13:00 +11°C° 0.3 mm 8 mps 754 mmHg 56%
    14:00 +11°C° 0.2 mm 7 mps 754 mmHg 57%
    15:00 +10°C° 0.2 mm 7 mps 754 mmHg 57%
    16:00 +10°C° 0.2 mm 7 mps 754 mmHg 58%
    17:00 +9°C° 0 mm 6 mps 755 mmHg 62%
    18:00 +8°C° 0 mm 5 mps 755 mmHg 67%
    19:00 +7°C° 0 mm 4 mps 756 mmHg 72%
    20:00 +8°C° 0 mm 3 mps 756 mmHg 74%
    21:00 +7°C° 0 mm 3 mps 756 mmHg 76%
    22:00 +7°C° 0 mm 3 mps 756 mmHg 79%
    23:00 +7°C° 0 mm 3 mps 756 mmHg 81%
    Show more